Find Starlink 30818

NORAD ID: 58217 Int'l Des: 2023-170 Owner: SPXS Country: US Constellation: starlink operational
LEOCIRCULAR

当前视图

正在加载3D地球...

About Starlink 30818

Starlink 30818 (NORAD 58217) is a starlink constellation satellite (v2 mini) launched Nov 4, 2023 by SPXS of US. It operates in LEO, CIRCULAR orbit with a mass of 730.00 kg.

关于 Starlink 30818

正在加载描述...

即将过境

Passes for default location (London). Set your location on the main map for personalized predictions.

高度历史

Loading altitude history...

两行轨道根数

1 58217U 23170M 26165.28164280 -.00003850 00000-0 -13060-3 0 9998
2 58217 43.0110 8.5829 0001283 262.3071 97.7635 15.27546370145075
Epoch: Jun 14, 2026 • Age: 34 hours

当前状态

高度 495.6 km
速度 7.62 km/s
星下点 -43.15°S, 111.13°E
发射日期 Nov 4, 2023
运行时间 2.6 years
类型 internet

技术详情

分类 Payload
质量 730.00 kg
干质量 700.00 kg
总质量 730.00 kg
长度 0.30 m
直径 4.10 m
跨度 29.00 m
形状 Box + pan
制造商 SPXS
平台类型 Starlink V2M
阶段状态 In Orbit
所有者/国家 SPXS/US

Most Searched